GW7030 Weather Reports


time (UTC)temp
C
wind
direction
speed
KPH
gust
KPH
rain 1hr
cm
rain 24hr
cm
rain mn
cm
humidity
%
barometer
mb
20260504215022 21 110 0.0 3.2 0.00 0.00 0.00 54 1014.2
20260504214620 22 108 0.0 6.4 0.00 0.00 0.00 51 1014.3
20260504214024 22 119 0.0 6.4 0.00 0.00 0.00 54 1014.3
20260504213522 22 108 0.0 4.8 0.00 0.00 0.00 50 1014.6
20260504213104 22 140 1.6 4.8 0.00 0.00 0.00 51 1014.5
20260504212523 23 119 1.6 6.4 0.00 0.00 0.00 51 1014.5
20260504212021 22 129 3.2 6.4 0.00 0.00 0.00 53 1014.5
20260504211604 21 129 1.6 6.4 0.00 0.00 0.00 54 1014.5
20260504211016 21 102 0.0 4.8 0.00 0.00 0.00 51 1014.5
20260504210521 22 132 1.6 6.4 0.00 0.00 0.00 52 1014.5
20260504210104 22 113 1.6 6.4 0.00 0.00 0.00 51 1014.6
20260504205517 22 119 1.6 6.4 0.00 0.00 0.00 53 1014.6
20260504205022 22 123 1.6 6.4 0.00 0.00 0.00 50 1014.6
20260504204555 23 104 1.6 6.4 0.00 0.00 0.00 49 1014.6
20260504204016 23 142 3.2 6.4 0.00 0.00 0.00 52 1014.6
20260504203517 23 130 1.6 6.4 0.00 0.00 0.00 49 1014.4
20260504203050 22 154 3.2 6.4 0.00 0.00 0.00 52 1014.4
20260504202518 22 151 3.2 6.4 0.00 0.00 0.00 49 1014.4
20260504202016 21 153 3.2 6.4 0.00 0.00 0.00 52 1014.4
20260504201612 21 131 1.6 6.4 0.00 0.00 0.00 50 1014.4
20260504201027 21 169 3.2 6.4 0.00 0.00 0.00 55 1014.4
20260504200532 21 135 1.6 6.4 0.00 0.00 0.00 50 1014.4
20260504195516 21 144 3.2 6.4 0.00 0.00 0.00 51 1014.6
20260504195019 21 146 1.6 6.4 0.00 0.00 0.00 51 1014.4
20260504194552 21 145 1.6 4.8 0.00 0.00 0.00 52 1014.4
20260504194029 21 156 3.2 6.4 0.00 0.00 0.00 50 1014.4
20260504193524 21 140 1.6 6.4 0.00 0.00 0.00 50 1014.5
20260504193026 20 138 1.6 6.4 0.00 0.00 0.00 53 1014.4
20260504192518 20 162 3.2 6.4 0.00 0.00 0.00 52 1014.4
20260504192013 20 131 1.6 6.4 0.00 0.00 0.00 52 1014.5
20260504191605 20 152 3.2 6.4 0.00 0.00 0.00 54 1014.4
20260504191018 20 150 3.2 4.8 0.00 0.00 0.00 55 1014.4
20260504190522 20 144 1.6 6.4 0.00 0.00 0.00 54 1014.4
20260504190121 19 141 0.0 4.8 0.00 0.00 0.00 52 1014.5
20260504185515 19 150 3.2 4.8 0.00 0.00 0.00 54 1014.5
20260504185019 19 84 0.0 4.8 0.00 0.00 0.00 53 1014.5
20260504184535 19 144 1.6 4.8 0.00 0.00 0.00 56 1014.5
20260504184041 19 108 1.6 4.8 0.00 0.00 0.00 56 1014.5
20260504183514 19 113 0.0 4.8 0.00 0.00 0.00 55 1014.5
20260504183501 19 92 0.0 4.8 0.00 0.00 0.00 58 1014.4
20260504182520 19 119 0.0 4.8 0.00 0.00 0.00 57 1014.4
20260504182021 19 146 1.6 4.8 0.00 0.00 0.00 55 1014.4
20260504181549 19 131 0.0 4.8 0.00 0.00 0.00 55 1014.4
20260504181017 19 142 0.0 4.8 0.00 0.00 0.00 56 1014.5
20260504180517 19 142 1.6 4.8 0.00 0.00 0.00 59 1014.5
20260504180054 19 142 1.6 4.8 0.00 0.00 0.00 56 1014.3
20260504175521 18 143 1.6 4.8 0.00 0.00 0.00 58 1014.4
20260504175016 18 142 1.6 4.8 0.00 0.00 0.00 58 1014.3
20260504174555 18 134 1.6 3.2 0.00 0.00 0.00 56 1014.3
20260504174019 18 128 0.0 3.2 0.00 0.00 0.00 54 1014.2
20260504173517 18 146 1.6 3.2 0.00 0.00 0.00 55 1014.2
20260504173050 18 149 0.0 4.8 0.00 0.00 0.00 55 1014.1
20260504172521 18 149 1.6 4.8 0.00 0.00 0.00 54 1014.1
20260504172016 18 149 0.0 3.2 0.00 0.00 0.00 53 1014.1
20260504171556 17 149 1.6 3.2 0.00 0.00 0.00 54 1014.1
20260504171016 17 149 1.6 3.2 0.00 0.00 0.00 53 1014.1
20260504170515 17 150 0.0 3.2 0.00 0.00 0.00 54 1014.2
20260504151010 17 5 0.0 4.8 0.00 0.00 0.00 45 1013.5
20260504150516 17 5 1.6 4.8 0.00 0.00 0.00 47 1013.6
20260504150104 17 306 0.0 1.6 0.00 0.00 0.00 48 1013.6
20260504141022 17 306 0.0 1.6 0.00 0.00 0.00 44 1013.5
20260504140516 17 306 0.0 1.6 0.00 0.00 0.00 44 1013.4
20260504140109 17 306 0.0 1.6 0.00 0.00 0.00 44 1013.4
20260504130638 17 306 0.0 1.6 0.00 0.00 0.00 43 1013.4
20260504130122 17 306 0.0 1.6 0.00 0.00 0.00 42 1013.4
20260504110515 18 306 0.0 3.2 0.00 0.00 0.00 40 1013.4
20260504100532 18 306 0.0 1.6 0.00 0.00 0.00 41 1013.4
20260504081552 18 306 0.0 1.6 0.00 0.00 0.00 37 1013.6
20260504081017 18 306 0.0 3.2 0.00 0.00 0.00 36 1013.7
20260504080519 18 306 0.0 3.2 0.00 0.00 0.00 36 1013.6
20260504050520 20 306 0.0 3.2 0.00 0.00 0.00 33 1013.9
20260504045516 19 306 1.6 3.2 0.00 0.00 0.00 33 1014.0
20260504045025 19 306 1.6 3.2 0.00 0.00 0.00 34 1014.0
20260504044603 19 306 1.6 3.2 0.00 0.00 0.00 35 1014.0
20260504044017 19 306 1.6 3.2 0.00 0.00 0.00 36 1014.0
20260504043516 19 306 0.0 3.2 0.00 0.00 0.00 36 1014.0
20260504043115 19 306 0.0 3.2 0.00 0.00 0.00 36 1014.1
20260504042517 19 306 0.0 3.2 0.00 0.00 0.00 37 1014.0
20260504042016 19 306 0.0 3.2 0.00 0.00 0.00 36 1014.0
20260504041556 19 306 0.0 3.2 0.00 0.00 0.00 35 1013.9
20260504041027 19 306 0.0 3.2 0.00 0.00 0.00 36 1014.0
20260504040518 19 306 0.0 3.2 0.00 0.00 0.00 36 1013.9
20260504040105 19 306 0.0 3.2 0.00 0.00 0.00 37 1013.9
20260504035520 19 306 0.0 3.2 0.00 0.00 0.00 36 1013.9
20260504035019 19 306 0.0 3.2 0.00 0.00 0.00 36 1013.9
20260504034558 19 306 0.0 3.2 0.00 0.00 0.00 37 1013.9
20260504034022 19 312 0.0 1.6 0.00 0.00 0.00 37 1013.9
20260504033521 19 312 0.0 3.2 0.00 0.00 0.00 37 1013.9
20260504033109 19 312 0.0 3.2 0.00 0.00 0.00 36 1013.9
20260504032522 19 312 0.0 3.2 0.00 0.00 0.00 36 1013.9
20260504032021 19 312 0.0 3.2 0.00 0.00 0.00 37 1013.9
20260504031557 19 310 0.0 1.6 0.00 0.00 0.00 37 1014.0
20260504031020 19 310 0.0 1.6 0.00 0.00 0.00 37 1013.9
20260504030519 19 310 0.0 3.2 0.00 0.00 0.00 38 1014.0
20260504030119 19 310 0.0 3.2 0.00 0.00 0.00 37 1014.0
20260504025527 19 334 0.0 1.6 0.00 0.00 0.00 37 1014.0
20260504025131 19 334 0.0 1.6 0.00 0.00 0.00 39 1014.0
20260504024554 19 334 0.0 1.6 0.00 0.00 0.00 38 1014.1
20260504024019 19 334 0.0 1.6 0.00 0.00 0.00 38 1014.1
20260504023515 19 334 0.0 1.6 0.00 0.00 0.00 36 1014.1
20260504023314 19 334 0.0 1.6 0.00 0.00 0.00 37 1014.1
20260504022514 19 334 0.0 1.6 0.00 0.00 0.00 37 1014.1
20260504022015 19 334 0.0 1.6 0.00 0.00 0.00 36 1014.1
20260504021609 19 334 0.0 1.6 0.00 0.00 0.00 36 1014.0
20260504021016 20 334 0.0 1.6 0.00 0.00 0.00 37 1014.1
20260504020515 20 334 0.0 0.0 0.00 0.00 0.00 38 1014.1
20260504020107 20 334 0.0 1.6 0.00 0.00 0.00 38 1014.1
20260504015615 20 334 0.0 1.6 0.00 0.00 0.00 37 1014.1
20260504015017 20 334 0.0 0.0 0.00 0.00 0.00 38 1014.2
20260504014614 20 334 0.0 0.0 0.00 0.00 0.00 38 1014.3
20260504014016 20 334 0.0 0.0 0.00 0.00 0.00 38 1014.3
20260504013518 20 334 0.0 0.0 0.00 0.00 0.00 39 1014.4
20260504013106 20 334 0.0 1.6 0.00 0.00 0.00 37 1014.4
20260504012518 20 334 0.0 1.6 0.00 0.00 0.00 37 1014.4
20260504012016 20 334 0.0 1.6 0.00 0.00 0.00 36 1014.6
20260504011610 20 334 0.0 1.6 0.00 0.00 0.00 35 1014.6
20260504011021 21 2 0.0 1.6 0.00 0.00 0.00 36 1014.7
20260504010515 21 19 0.0 4.8 0.00 0.00 0.00 34 1014.8
20260504010315 21 21 0.0 4.8 0.00 0.00 0.00 34 1014.7
20260504005518 21 308 0.0 1.6 0.00 0.00 0.00 35 1014.8
20260504005018 21 308 0.0 3.2 0.00 0.00 0.00 35 1014.9
20260504004549 21 34 0.0 3.2 0.00 0.00 0.00 34 1014.9
20260504004019 21 38 0.0 3.2 0.00 0.00 0.00 34 1014.9
20260504003522 21 38 0.0 3.2 0.00 0.00 0.00 34 1014.9
20260504003053 21 38 0.0 3.2 0.00 0.00 0.00 33 1014.9
20260504002515 21 39 0.0 3.2 0.00 0.00 0.00 33 1014.9
20260504002016 21 39 0.0 4.8 0.00 0.00 0.00 34 1014.9
20260504001814 21 40 0.0 4.8 0.00 0.00 0.00 33 1014.8
20260504001018 21 26 0.0 4.8 0.00 0.00 0.00 33 1014.9
20260504000517 21 25 0.0 4.8 0.00 0.00 0.00 32 1014.9
20260504000057 21 30 0.0 4.8 0.00 0.00 0.00 35 1015.0
20260503235519 21 38 0.0 4.8 0.00 0.00 0.00 33 1015.1
20260503235015 21 305 0.0 4.8 0.00 0.00 0.00 31 1015.1
20260503234550 21 40 0.0 4.8 0.00 0.00 0.00 35 1015.1
20260503234013 22 40 1.6 4.8 0.00 0.00 0.00 34 1015.1
20260503233519 22 40 0.0 4.8 0.00 0.00 0.00 36 1015.3
20260503233052 22 40 1.6 4.8 0.00 0.00 0.00 35 1015.3
20260503232518 22 41 0.0 4.8 0.00 0.00 0.00 34 1015.4
20260503232018 22 41 0.0 4.8 0.00 0.00 0.00 34 1015.4
20260503231550 22 41 1.6 4.8 0.00 0.00 0.00 36 1015.4
20260503231018 22 63 0.0 4.8 0.00 0.00 0.00 37 1015.5
20260503230515 22 38 0.0 4.8 0.00 0.00 0.00 36 1015.6
20260503230058 22 56 0.0 4.8 0.00 0.00 0.00 37 1015.8
20260503225516 22 98 0.0 4.8 0.00 0.00 0.00 39 1015.6
20260503225015 23 98 1.6 4.8 0.00 0.00 0.00 39 1015.8
20260503224539 23 129 0.0 4.8 0.00 0.00 0.00 36 1015.9
20260503224017 23 129 1.6 4.8 0.00 0.00 0.00 37 1016.0
20260503223522 23 97 1.6 6.4 0.00 0.00 0.00 34 1015.9
20260503223051 23 71 1.6 6.4 0.00 0.00 0.00 36 1016.0
20260503222515 24 102 0.0 4.8 0.00 0.00 0.00 32 1016.0
20260503222016 25 139 3.2 4.8 0.00 0.00 0.00 37 1016.1
20260503221546 25 113 1.6 6.4 0.00 0.00 0.00 37 1015.9
20260503221017 25 117 3.2 6.4 0.00 0.00 0.00 36 1016.1
20260503220515 25 133 3.2 6.4 0.00 0.00 0.00 38 1016.3
20260503220050 25 125 3.2 6.4 0.00 0.00 0.00 36 1016.3
20260503215517 25 144 3.2 6.4 0.00 0.00 0.00 38 1016.1